sat.trackr.live / text

‹ back to catalog

STARLINK-37508

NORAD 69257 · 2026-117V

PAYLOAD ACTIVE UNKNOWN

§ Identity

Operator
Country
US
Launch date
2026-05-29
Launch site
AFETR
Launch vehicle
Mass (kg)
RCS (m²)

Purposes: comms

External: N2YO · Heavens-Above · Gunter

§ Orbital elements

Epoch: 2026-09-19T03:27:29.331936Z

Period
93.85 min
Inclination
53.1565°
Eccentricity
0.0001107
Mean motion
15.34409346 rev/d
Perigee alt
461.9 km
Apogee alt
463.4 km
Semi-major
6,840.8 km
B*
4.8408e-4
RAAN
159.7272°
Arg perigee
97.0466°
Mean anomaly
263.0663°
Rev number
1,746

§ Raw data

STARLINK-375081 69257U 26117V   26262.14408949  .00016019  00000+0  48408-3 0  99962 69257  53.1565 159.7272 0001107  97.0466 263.0663 15.34409346 17463

JSON: /api/v1/satellites/69257 · /tle

For live sub-satellite position, see the globe view (requires WebGL).

§ Visibility from observer

Set your observer location to see the next 7 days of passes ≥ 10°. The values pass through the URL so the page stays shareable.

No JS? Fill the form by hand. The geolocation button needs JavaScript.